Find Starlink 30830

NORAD ID: 58194 Int'l Des: 2023-167 Owner: SPXS Country: US Constellation: starlink operational
LEOCIRCULAR

Current View

Loading 3D Globe...

About Starlink 30830

Starlink 30830 (NORAD 58194) is a starlink constellation satellite (v2 mini) launched Oct 30, 2023 by SPXS of US. It operates in LEO, CIRCULAR orbit with a mass of 730.00 kg.

About Starlink 30830

Description loading...

Upcoming Passes

Passes for default location (London). Set your location on the main map for personalized predictions.

Altitude History

Loading altitude history...

Two-Line Element Set

1 58194U 23167V 26169.61113127 .00000812 00000-0 39013-4 0 9993
2 58194 43.0027 293.0895 0001265 254.8586 105.2126 15.27580298146424
Epoch: Jun 18, 2026 • Age: 18 hours

Current Status

Altitude 484.7 km
Velocity 7.62 km/s
Sub-Earth Point -11.82°S, 82.29°E
Launch Date Oct 30, 2023
Age 2.6 years
Type internet

Technical Details

Classification Payload
Mass 730.00 kg
Dry Mass 700.00 kg
Total Mass 730.00 kg
Length 0.30 m
Diameter 4.10 m
Span 29.00 m
Shape Box + pan
Manufacturer SPXS
Bus Type Starlink V2M
Phase Status In Orbit
Owner/State SPXS/US

Most Searched